PRIVATE WETTERSTATION BILLIGHEIM-ALLFELD                       ZURCK
Wetterdaten: Samstag, 30.12.2017
Datum Zeit Temp. A. Temp. A. min Temp. A. max Feuchte A. Luftdruck Regen Wind Richtung Richtung Sonnenschein ET Solar Taupunkt Windchill Windben Empfang
30.12.2017 00:00 1,4 C 1,2 C 1,4 C 91 % 1005,7 hPa 0,2 l/m 9,7 km/h (2 Bft) W-SW 247 0 min 0,000 mm 0 W/m 0,1 C -1,7 C 25,7 km/h (4 Bft) 98 %
30.12.2017 00:10 1,4 C 1,4 C 1,4 C 91 % 1005,9 hPa 0,1 l/m 11,3 km/h (2 Bft) W 270 0 min 0,000 mm 0 W/m 0,1 C -2,9 C 25,7 km/h (4 Bft) 98 %
30.12.2017 00:20 1,7 C 1,4 C 1,7 C 91 % 1006,1 hPa 0,2 l/m 8,0 km/h (2 Bft) W 270 0 min 0,000 mm 0 W/m 0,4 C 0,1 C 19,3 km/h (3 Bft) 98 %
30.12.2017 00:30 1,8 C 1,6 C 1,8 C 91 % 1006,4 hPa 0,1 l/m 8,0 km/h (2 Bft) W-SW 247 0 min 0,000 mm 0 W/m 0,5 C 0,2 C 20,9 km/h (4 Bft) 97 %
30.12.2017 00:40 1,8 C 1,7 C 1,8 C 91 % 1006,8 hPa 0,1 l/m 6,4 km/h (2 Bft) W-SW 247 0 min 0,000 mm 0 W/m 0,5 C 1,8 C 19,3 km/h (3 Bft) 98 %
30.12.2017 00:50 1,9 C 1,8 C 1,9 C 91 % 1007,0 hPa 0,0 l/m 4,8 km/h (1 Bft) W-NW 292 0 min 0,000 mm 0 W/m 0,6 C 1,9 C 19,3 km/h (3 Bft) 98 %
30.12.2017 01:00 2,0 C 1,9 C 2,1 C 91 % 1007,3 hPa 0,0 l/m 4,8 km/h (1 Bft) W-SW 247 0 min 0,000 mm 0 W/m 0,7 C 2,0 C 17,7 km/h (3 Bft) 98 %
30.12.2017 01:10 2,1 C 2,1 C 2,2 C 91 % 1007,7 hPa 0,0 l/m 8,0 km/h (2 Bft) W-SW 247 0 min 0,000 mm 0 W/m 0,8 C 0,6 C 20,9 km/h (4 Bft) 98 %
30.12.2017 01:20 2,2 C 2,2 C 2,2 C 91 % 1007,7 hPa 0,0 l/m 8,0 km/h (2 Bft) W-SW 247 0 min 0,000 mm 0 W/m 0,9 C 0,7 C 19,3 km/h (3 Bft) 98 %
30.12.2017 01:30 2,3 C 2,2 C 2,3 C 91 % 1007,7 hPa 0,0 l/m 4,8 km/h (1 Bft) W-SW 247 0 min 0,000 mm 0 W/m 1,0 C 2,3 C 17,7 km/h (3 Bft) 98 %
30.12.2017 01:40 2,4 C 2,3 C 2,4 C 91 % 1008,0 hPa 0,0 l/m 6,4 km/h (2 Bft) W-SW 247 0 min 0,000 mm 0 W/m 1,1 C 2,4 C 20,9 km/h (4 Bft) 97 %
30.12.2017 01:50 2,4 C 2,4 C 2,4 C 91 % 1008,3 hPa 0,0 l/m 4,8 km/h (1 Bft) W-SW 247 0 min 0,000 mm 0 W/m 1,1 C 2,4 C 17,7 km/h (3 Bft) 98 %
30.12.2017 02:00 2,4 C 2,4 C 2,4 C 91 % 1008,3 hPa 0,0 l/m 3,2 km/h (1 Bft) W 270 0 min 0,000 mm 0 W/m 1,1 C 2,4 C 16,1 km/h (3 Bft) 97 %
30.12.2017 02:10 2,3 C 2,3 C 2,4 C 91 % 1008,4 hPa 0,0 l/m 8,0 km/h (2 Bft) SW 225 0 min 0,000 mm 0 W/m 1,0 C 0,8 C 20,9 km/h (4 Bft) 98 %
30.12.2017 02:20 2,3 C 2,3 C 2,3 C 91 % 1008,5 hPa 0,0 l/m 9,7 km/h (2 Bft) SW 225 0 min 0,000 mm 0 W/m 1,0 C -0,7 C 20,9 km/h (4 Bft) 98 %
30.12.2017 02:30 2,3 C 2,3 C 2,3 C 91 % 1008,6 hPa 0,0 l/m 8,0 km/h (2 Bft) SW 225 0 min 0,000 mm 0 W/m 1,0 C 0,8 C 25,7 km/h (4 Bft) 98 %
30.12.2017 02:40 2,4 C 2,3 C 2,4 C 91 % 1008,6 hPa 0,0 l/m 9,7 km/h (2 Bft) SW 225 0 min 0,000 mm 0 W/m 1,1 C -0,6 C 19,3 km/h (3 Bft) 98 %
30.12.2017 02:50 2,4 C 2,4 C 2,4 C 91 % 1008,6 hPa 0,0 l/m 9,7 km/h (2 Bft) SW 225 0 min 0,000 mm 0 W/m 1,1 C -0,6 C 24,1 km/h (4 Bft) 97 %
30.12.2017 03:00 2,5 C 2,4 C 2,5 C 91 % 1008,6 hPa 0,0 l/m 8,0 km/h (2 Bft) SW 225 0 min 0,000 mm 0 W/m 1,2 C 1,0 C 25,7 km/h (4 Bft) 98 %
30.12.2017 03:10 2,5 C 2,5 C 2,6 C 91 % 1008,5 hPa 0,0 l/m 6,4 km/h (2 Bft) SW 225 0 min 0,000 mm 0 W/m 1,2 C 2,5 C 17,7 km/h (3 Bft) 98 %
30.12.2017 03:20 2,6 C 2,5 C 2,6 C 91 % 1008,6 hPa 0,0 l/m 6,4 km/h (2 Bft) SW 225 0 min 0,000 mm 0 W/m 1,3 C 2,6 C 19,3 km/h (3 Bft) 98 %
30.12.2017 03:30 2,5 C 2,5 C 2,6 C 91 % 1008,5 hPa 0,0 l/m 8,0 km/h (2 Bft) S-SW 202 0 min 0,000 mm 0 W/m 1,2 C 1,0 C 17,7 km/h (3 Bft) 97 %
30.12.2017 03:40 2,4 C 2,4 C 2,5 C 91 % 1008,5 hPa 0,0 l/m 8,0 km/h (2 Bft) S-SW 202 0 min 0,000 mm 0 W/m 1,1 C 0,9 C 17,7 km/h (3 Bft) 97 %
30.12.2017 03:50 2,5 C 2,4 C 2,5 C 91 % 1008,4 hPa 0,0 l/m 11,3 km/h (2 Bft) S-SW 202 0 min 0,000 mm 0 W/m 1,2 C -1,6 C 20,9 km/h (4 Bft) 98 %
30.12.2017 04:00 2,5 C 2,5 C 2,5 C 91 % 1008,3 hPa 0,0 l/m 11,3 km/h (2 Bft) S-SW 202 0 min 0,000 mm 0 W/m 1,2 C -1,6 C 22,5 km/h (4 Bft) 97 %
30.12.2017 04:10 2,6 C 2,5 C 2,6 C 91 % 1008,1 hPa 0,0 l/m 11,3 km/h (2 Bft) S-SW 202 0 min 0,000 mm 0 W/m 1,3 C -1,5 C 19,3 km/h (3 Bft) 98 %
30.12.2017 04:20 2,6 C 2,6 C 2,6 C 91 % 1008,1 hPa 0,0 l/m 8,0 km/h (2 Bft) S-SW 202 0 min 0,000 mm 0 W/m 1,3 C 1,1 C 16,1 km/h (3 Bft) 97 %
30.12.2017 04:30 2,6 C 2,6 C 2,6 C 91 % 1008,0 hPa 0,0 l/m 6,4 km/h (2 Bft) S-SW 202 0 min 0,000 mm 0 W/m 1,3 C 2,6 C 16,1 km/h (3 Bft) 97 %
30.12.2017 04:40 2,6 C 2,6 C 2,6 C 91 % 1007,8 hPa 0,0 l/m 3,2 km/h (1 Bft) S-SW 202 0 min 0,000 mm 0 W/m 1,3 C 2,6 C 11,3 km/h (2 Bft) 97 %
30.12.2017 04:50 2,4 C 2,4 C 2,6 C 91 % 1007,6 hPa 0,0 l/m 6,4 km/h (2 Bft) S 180 0 min 0,000 mm 0 W/m 1,1 C 2,4 C 11,3 km/h (2 Bft) 98 %
30.12.2017 05:00 2,3 C 2,3 C 2,4 C 91 % 1007,3 hPa 0,0 l/m 3,2 km/h (1 Bft) S 180 0 min 0,000 mm 0 W/m 1,0 C 2,3 C 11,3 km/h (2 Bft) 98 %
30.12.2017 05:10 2,2 C 2,2 C 2,3 C 91 % 1007,4 hPa 0,0 l/m 4,8 km/h (1 Bft) S-SW 202 0 min 0,000 mm 0 W/m 0,9 C 2,2 C 9,7 km/h (2 Bft) 97 %
30.12.2017 05:20 2,1 C 2,1 C 2,2 C 91 % 1007,3 hPa 0,0 l/m 3,2 km/h (1 Bft) S-SW 202 0 min 0,000 mm 0 W/m 0,8 C 2,1 C 9,7 km/h (2 Bft) 98 %
30.12.2017 05:30 2,1 C 2,0 C 2,1 C 91 % 1007,2 hPa 0,0 l/m 3,2 km/h (1 Bft) S 180 0 min 0,000 mm 0 W/m 0,8 C 2,1 C 9,7 km/h (2 Bft) 97 %
30.12.2017 05:40 2,0 C 2,0 C 2,1 C 91 % 1007,1 hPa 0,0 l/m 1,6 km/h (1 Bft) S-SW 202 0 min 0,000 mm 0 W/m 0,7 C 2,0 C 9,7 km/h (2 Bft) 98 %
30.12.2017 05:50 2,1 C 2,0 C 2,1 C 91 % 1007,0 hPa 0,0 l/m 4,8 km/h (1 Bft) S 180 0 min 0,000 mm 0 W/m 0,8 C 2,1 C 14,5 km/h (3 Bft) 97 %
30.12.2017 06:00 2,1 C 2,1 C 2,2 C 91 % 1007,2 hPa 0,0 l/m 6,4 km/h (2 Bft) S 180 0 min 0,000 mm 0 W/m 0,8 C 2,1 C 16,1 km/h (3 Bft) 98 %
30.12.2017 06:10 2,0 C 2,0 C 2,1 C 91 % 1006,9 hPa 0,0 l/m 8,0 km/h (2 Bft) S 180 0 min 0,000 mm 0 W/m 0,7 C 0,5 C 17,7 km/h (3 Bft) 98 %
30.12.2017 06:20 2,0 C 2,0 C 2,0 C 91 % 1007,1 hPa 0,0 l/m 8,0 km/h (2 Bft) S 180 0 min 0,000 mm 0 W/m 0,7 C 0,5 C 19,3 km/h (3 Bft) 98 %
30.12.2017 06:30 2,0 C 2,0 C 2,0 C 91 % 1007,0 hPa 0,0 l/m 9,7 km/h (2 Bft) S 180 0 min 0,000 mm 0 W/m 0,7 C -1,0 C 19,3 km/h (3 Bft) 98 %
30.12.2017 06:40 2,1 C 2,0 C 2,1 C 91 % 1006,8 hPa 0,0 l/m 8,0 km/h (2 Bft) S-SO 157 0 min 0,000 mm 0 W/m 0,8 C 0,6 C 19,3 km/h (3 Bft) 98 %
30.12.2017 06:50 2,1 C 2,1 C 2,1 C 91 % 1006,5 hPa 0,0 l/m 4,8 km/h (1 Bft) S-SO 157 0 min 0,000 mm 0 W/m 0,8 C 2,1 C 11,3 km/h (2 Bft) 97 %
30.12.2017 07:00 2,1 C 2,1 C 2,1 C 91 % 1006,4 hPa 0,0 l/m 6,4 km/h (2 Bft) S-SO 157 0 min 0,000 mm 0 W/m 0,8 C 2,1 C 16,1 km/h (3 Bft) 97 %
30.12.2017 07:10 2,1 C 2,1 C 2,1 C 91 % 1006,5 hPa 0,0 l/m 1,6 km/h (1 Bft) S-SW 202 0 min 0,000 mm 0 W/m 0,8 C 2,1 C 9,7 km/h (2 Bft) 89 %
30.12.2017 07:20 2,0 C 2,0 C 2,1 C 91 % 1006,7 hPa 0,0 l/m 1,6 km/h (1 Bft) S-SW 202 0 min 0,000 mm 0 W/m 0,7 C 2,0 C 8,0 km/h (2 Bft) 98 %
30.12.2017 07:30 1,9 C 1,9 C 2,0 C 91 % 1006,6 hPa 0,0 l/m 1,6 km/h (1 Bft) S 180 0 min 0,000 mm 0 W/m 0,6 C 1,9 C 11,3 km/h (2 Bft) 97 %
30.12.2017 07:40 2,0 C 1,9 C 2,0 C 91 % 1006,6 hPa 0,0 l/m 3,2 km/h (1 Bft) S-SO 157 0 min 0,000 mm 0 W/m 0,7 C 2,0 C 12,9 km/h (3 Bft) 97 %
30.12.2017 07:50 2,1 C 2,0 C 2,1 C 91 % 1006,7 hPa 0,0 l/m 4,8 km/h (1 Bft) S 180 0 min 0,000 mm 0 W/m 0,8 C 2,1 C 16,1 km/h (3 Bft) 97 %
30.12.2017 08:00 2,0 C 1,9 C 2,1 C 91 % 1006,7 hPa 0,0 l/m 3,2 km/h (1 Bft) S 180 0 min 0,000 mm 0 W/m 0,7 C 2,0 C 14,5 km/h (3 Bft) 97 %
30.12.2017 08:10 1,9 C 1,9 C 2,0 C 91 % 1006,8 hPa 0,2 l/m 4,8 km/h (1 Bft) S 180 0 min 0,000 mm 0 W/m 0,6 C 1,9 C 16,1 km/h (3 Bft) 98 %
30.12.2017 08:20 2,1 C 1,9 C 2,1 C 91 % 1006,4 hPa 0,2 l/m 4,8 km/h (1 Bft) S 180 0 min 0,000 mm 0 W/m 0,8 C 2,1 C 17,7 km/h (3 Bft) 98 %
30.12.2017 08:30 2,1 C 2,1 C 2,1 C 91 % 1006,3 hPa 0,2 l/m 4,8 km/h (1 Bft) S 180 0 min 0,000 mm 0 W/m 0,8 C 2,1 C 17,7 km/h (3 Bft) 97 %
30.12.2017 08:40 2,1 C 2,1 C 2,1 C 91 % 1006,0 hPa 0,2 l/m 1,6 km/h (1 Bft) S 180 0 min 0,000 mm 0 W/m 0,8 C 2,1 C 9,7 km/h (2 Bft) 98 %
30.12.2017 08:50 2,2 C 2,1 C 2,2 C 91 % 1006,1 hPa 0,0 l/m 1,6 km/h (1 Bft) S-SO 157 0 min 0,000 mm 0 W/m 0,9 C 2,2 C 8,0 km/h (2 Bft) 89 %
30.12.2017 09:00 2,2 C 2,2 C 2,2 C 91 % 1005,9 hPa 0,2 l/m 3,2 km/h (1 Bft) S-SO 157 0 min 0,000 mm 7 W/m 0,9 C 2,2 C 16,1 km/h (3 Bft) 98 %
30.12.2017 09:10 2,3 C 2,2 C 2,3 C 91 % 1005,6 hPa 0,0 l/m 4,8 km/h (1 Bft) S-SO 157 0 min 0,000 mm 12 W/m 1,0 C 2,3 C 11,3 km/h (2 Bft) 97 %
30.12.2017 09:20 2,4 C 2,3 C 2,4 C 91 % 1005,5 hPa 0,2 l/m 6,4 km/h (2 Bft) S-SO 157 0 min 0,000 mm 19 W/m 1,1 C 2,4 C 16,1 km/h (3 Bft) 98 %
30.12.2017 09:30 2,4 C 2,4 C 2,5 C 91 % 1005,4 hPa 0,0 l/m 8,0 km/h (2 Bft) S-SO 157 0 min 0,000 mm 19 W/m 1,1 C 0,9 C 17,7 km/h (3 Bft) 98 %
30.12.2017 09:40 2,5 C 2,4 C 2,5 C 91 % 1005,0 hPa 0,2 l/m 8,0 km/h (2 Bft) S-SO 157 0 min 0,000 mm 19 W/m 1,2 C 1,0 C 17,7 km/h (3 Bft) 97 %
30.12.2017 09:50 2,6 C 2,5 C 2,6 C 91 % 1004,8 hPa 0,2 l/m 9,7 km/h (2 Bft) S-SO 157 0 min 0,000 mm 21 W/m 1,3 C -0,3 C 19,3 km/h (3 Bft) 98 %
30.12.2017 10:00 2,6 C 2,6 C 2,6 C 91 % 1004,8 hPa 0,2 l/m 9,7 km/h (2 Bft) S-SO 157 0 min 0,000 mm 28 W/m 1,3 C -0,3 C 20,9 km/h (4 Bft) 98 %
30.12.2017 10:10 2,7 C 2,6 C 2,7 C 91 % 1004,6 hPa 0,2 l/m 9,7 km/h (2 Bft) S-SO 157 0 min 0,000 mm 44 W/m 1,4 C -0,2 C 19,3 km/h (3 Bft) 97 %
30.12.2017 10:20 2,8 C 2,7 C 2,8 C 91 % 1004,5 hPa 0,0 l/m 11,3 km/h (2 Bft) S-SO 157 0 min 0,000 mm 46 W/m 1,5 C -1,3 C 22,5 km/h (4 Bft) 98 %
30.12.2017 10:30 2,9 C 2,8 C 2,9 C 91 % 1004,6 hPa 0,0 l/m 11,3 km/h (2 Bft) S-SO 157 0 min 0,000 mm 47 W/m 1,6 C -1,2 C 20,9 km/h (4 Bft) 97 %
30.12.2017 10:40 2,9 C 2,8 C 2,9 C 91 % 1004,2 hPa 0,2 l/m 8,0 km/h (2 Bft) S-SO 157 0 min 0,000 mm 40 W/m 1,6 C 1,4 C 19,3 km/h (3 Bft) 97 %
30.12.2017 10:50 3,0 C 2,9 C 3,0 C 91 % 1003,8 hPa 0,0 l/m 12,9 km/h (3 Bft) S-SO 157 0 min 0,000 mm 56 W/m 1,7 C -2,1 C 24,1 km/h (4 Bft) 97 %
30.12.2017 11:00 3,1 C 3,0 C 3,1 C 91 % 1003,7 hPa 0,2 l/m 14,5 km/h (3 Bft) S-SO 157 0 min 0,025 mm 60 W/m 1,8 C -2,9 C 32,2 km/h (5 Bft) 98 %
30.12.2017 11:10 3,2 C 3,1 C 3,2 C 91 % 1003,4 hPa 0,0 l/m 16,1 km/h (3 Bft) S-SO 157 0 min 0,000 mm 69 W/m 1,9 C -3,7 C 30,6 km/h (5 Bft) 97 %
30.12.2017 11:20 3,3 C 3,2 C 3,3 C 91 % 1002,9 hPa 0,0 l/m 14,5 km/h (3 Bft) S 180 0 min 0,000 mm 72 W/m 2,0 C -2,7 C 33,8 km/h (5 Bft) 98 %
30.12.2017 11:30 3,3 C 3,3 C 3,3 C 91 % 1002,7 hPa 0,2 l/m 12,9 km/h (3 Bft) S 180 0 min 0,000 mm 91 W/m 2,0 C -1,8 C 24,1 km/h (4 Bft) 97 %
30.12.2017 11:40 3,3 C 3,3 C 3,3 C 91 % 1002,7 hPa 0,0 l/m 11,3 km/h (2 Bft) S 180 0 min 0,000 mm 47 W/m 2,0 C -0,7 C 20,9 km/h (4 Bft) 97 %
30.12.2017 11:50 3,4 C 3,3 C 3,4 C 91 % 1002,7 hPa 0,0 l/m 11,3 km/h (2 Bft) S 180 0 min 0,000 mm 90 W/m 2,1 C -0,6 C 29,0 km/h (5 Bft) 98 %
30.12.2017 12:00 3,4 C 3,4 C 3,4 C 91 % 1002,9 hPa 0,2 l/m 12,9 km/h (3 Bft) S-SW 202 0 min 0,025 mm 63 W/m 2,1 C -1,7 C 22,5 km/h (4 Bft) 97 %
30.12.2017 12:10 3,6 C 3,4 C 3,6 C 91 % 1002,9 hPa 0,0 l/m 14,5 km/h (3 Bft) S-SW 202 0 min 0,000 mm 49 W/m 2,3 C -2,3 C 27,4 km/h (4 Bft) 98 %
30.12.2017 12:20 3,6 C 3,5 C 3,6 C 91 % 1003,0 hPa 0,0 l/m 16,1 km/h (3 Bft) S-SW 202 0 min 0,000 mm 47 W/m 2,3 C -3,2 C 32,2 km/h (5 Bft) 88 %
30.12.2017 12:30 3,6 C 3,6 C 3,6 C 91 % 1002,8 hPa 0,0 l/m 16,1 km/h (3 Bft) S-SW 202 0 min 0,000 mm 46 W/m 2,3 C -3,2 C 27,4 km/h (4 Bft) 98 %
30.12.2017 12:40 3,7 C 3,6 C 3,7 C 91 % 1002,8 hPa 0,0 l/m 14,5 km/h (3 Bft) S-SW 202 0 min 0,000 mm 62 W/m 2,4 C -2,2 C 27,4 km/h (4 Bft) 98 %
30.12.2017 12:50 3,8 C 3,7 C 3,8 C 91 % 1002,8 hPa 0,0 l/m 11,3 km/h (2 Bft) S-SW 202 0 min 0,000 mm 44 W/m 2,5 C -0,2 C 20,9 km/h (4 Bft) 97 %
30.12.2017 13:00 3,8 C 3,8 C 3,8 C 91 % 1003,0 hPa 0,0 l/m 9,7 km/h (2 Bft) S-SW 202 0 min 0,025 mm 35 W/m 2,5 C 1,0 C 16,1 km/h (3 Bft) 97 %
30.12.2017 13:10 3,9 C 3,8 C 3,9 C 91 % 1002,8 hPa 0,0 l/m 8,0 km/h (2 Bft) S-SW 202 0 min 0,000 mm 47 W/m 2,6 C 2,4 C 16,1 km/h (3 Bft) 97 %
30.12.2017 13:20 4,0 C 3,9 C 4,0 C 91 % 1002,8 hPa 0,0 l/m 8,0 km/h (2 Bft) S 180 0 min 0,000 mm 76 W/m 2,7 C 2,6 C 17,7 km/h (3 Bft) 98 %
30.12.2017 13:30 4,2 C 4,0 C 4,2 C 91 % 1002,9 hPa 0,0 l/m 8,0 km/h (2 Bft) S-SW 202 0 min 0,000 mm 76 W/m 2,9 C 2,8 C 17,7 km/h (3 Bft) 97 %
30.12.2017 13:40 4,4 C 4,2 C 4,4 C 91 % 1002,8 hPa 0,0 l/m 8,0 km/h (2 Bft) S-SW 202 0 min 0,000 mm 90 W/m 3,1 C 3,0 C 22,5 km/h (4 Bft) 98 %
30.12.2017 13:50 4,8 C 4,4 C 4,8 C 91 % 1003,1 hPa 0,0 l/m 6,4 km/h (2 Bft) S-SW 202 0 min 0,000 mm 81 W/m 3,5 C 4,8 C 16,1 km/h (3 Bft) 98 %
30.12.2017 14:00 5,1 C 4,8 C 5,1 C 91 % 1003,7 hPa 0,0 l/m 8,0 km/h (2 Bft) SW 225 0 min 0,025 mm 62 W/m 3,8 C 3,7 C 17,7 km/h (3 Bft) 98 %
30.12.2017 14:20 6,2 C 4,8 C 6,2 C 91 % 1003,5 hPa 0,0 l/m 9,2 km/h (2 Bft) S-SW 208 0 min 0,002 mm 26 W/m 4,8 C 4,0 C 22,5 km/h (4 Bft) 89 %
30.12.2017 14:30 6,9 C 6,2 C 6,9 C 92 % 1003,4 hPa 0,0 l/m 14,2 km/h (3 Bft) W 268 0 min 0,000 mm 39 W/m 5,7 C 1,8 C 29,0 km/h (5 Bft) 100 %
30.12.2017 14:40 7,6 C 6,9 C 7,6 C 92 % 1003,4 hPa 0,0 l/m 13,4 km/h (3 Bft) SW 223 0 min 0,000 mm 54 W/m 6,4 C 3,0 C 32,2 km/h (5 Bft) 99 %
30.12.2017 14:50 8,0 C 7,6 C 8,0 C 92 % 1003,4 hPa 0,0 l/m 18,6 km/h (3 Bft) SW 221 0 min 0,000 mm 56 W/m 6,8 C 1,2 C 35,4 km/h (5 Bft) 100 %
30.12.2017 15:00 8,2 C 8,0 C 8,2 C 92 % 1003,5 hPa 0,0 l/m 18,3 km/h (3 Bft) SW 232 0 min 0,025 mm 35 W/m 7,0 C 1,6 C 30,6 km/h (5 Bft) 99 %
30.12.2017 15:10 8,4 C 8,2 C 8,4 C 91 % 1003,9 hPa 0,0 l/m 14,9 km/h (3 Bft) SW 217 0 min 0,000 mm 33 W/m 7,0 C 3,2 C 29,0 km/h (5 Bft) 98 %
30.12.2017 15:20 8,6 C 8,4 C 8,6 C 91 % 1004,0 hPa 0,0 l/m 11,9 km/h (2 Bft) W 263 0 min 0,000 mm 37 W/m 7,2 C 5,0 C 30,6 km/h (5 Bft) 100 %
30.12.2017 15:30 8,7 C 8,6 C 8,7 C 91 % 1004,2 hPa 0,0 l/m 13,7 km/h (3 Bft) W 259 0 min 0,000 mm 21 W/m 7,3 C 4,2 C 43,5 km/h (6 Bft) 100 %
30.12.2017 15:40 8,9 C 8,7 C 8,9 C 91 % 1004,1 hPa 0,0 l/m 13,8 km/h (3 Bft) W-SW 238 0 min 0,000 mm 25 W/m 7,5 C 4,3 C 29,0 km/h (5 Bft) 99 %
30.12.2017 15:50 9,1 C 8,9 C 9,1 C 91 % 1004,3 hPa 0,0 l/m 18,0 km/h (3 Bft) W-SW 254 0 min 0,000 mm 23 W/m 7,7 C 2,8 C 33,8 km/h (5 Bft) 100 %
30.12.2017 16:00 9,2 C 9,1 C 9,2 C 91 % 1004,5 hPa 0,0 l/m 14,9 km/h (3 Bft) W-SW 242 0 min 0,025 mm 14 W/m 7,8 C 4,2 C 35,4 km/h (5 Bft) 99 %
30.12.2017 16:10 9,4 C 9,2 C 9,4 C 90 % 1004,3 hPa 0,0 l/m 19,9 km/h (4 Bft) W 261 0 min 0,000 mm 11 W/m 7,8 C 2,5 C 35,4 km/h (5 Bft) 97 %
30.12.2017 16:20 9,6 C 9,4 C 9,6 C 90 % 1004,4 hPa 0,0 l/m 19,2 km/h (3 Bft) SW 225 0 min 0,000 mm 7 W/m 8,0 C 3,0 C 46,7 km/h (6 Bft) 98 %
30.12.2017 16:30 9,6 C 9,6 C 9,6 C 90 % 1004,4 hPa 0,0 l/m 13,5 km/h (3 Bft) SW 226 0 min 0,000 mm 0 W/m 8,0 C 5,3 C 37,0 km/h (5 Bft) 98 %
30.12.2017 16:40 9,7 C 9,6 C 9,7 C 90 % 1004,4 hPa 0,0 l/m 15,6 km/h (3 Bft) SW 219 0 min 0,000 mm 0 W/m 8,1 C 4,5 C 33,8 km/h (5 Bft) 98 %
30.12.2017 16:50 9,8 C 9,7 C 9,8 C 91 % 1004,9 hPa 0,0 l/m 14,3 km/h (3 Bft) W 278 0 min 0,000 mm 0 W/m 8,4 C 5,2 C 27,4 km/h (4 Bft) 98 %
30.12.2017 17:00 9,9 C 9,8 C 9,9 C 91 % 1005,2 hPa 0,0 l/m 14,4 km/h (3 Bft) W-SW 248 0 min 0,000 mm 0 W/m 8,5 C 5,3 C 35,4 km/h (5 Bft) 98 %
30.12.2017 17:10 10,1 C 9,9 C 10,1 C 91 % 1005,2 hPa 0,0 l/m 16,0 km/h (3 Bft) W 267 0 min 0,025 mm 0 W/m 8,7 C 4,8 C 33,8 km/h (5 Bft) 97 %
30.12.2017 17:20 10,2 C 10,1 C 10,2 C 91 % 1005,2 hPa 0,0 l/m 19,0 km/h (3 Bft) SW 221 0 min 0,001 mm 0 W/m 8,8 C 3,9 C 35,4 km/h (5 Bft) 98 %
30.12.2017 17:30 10,3 C 10,2 C 10,3 C 94 % 1005,5 hPa 0,0 l/m 17,0 km/h (3 Bft) SW 215 0 min 0,000 mm 0 W/m 9,4 C 4,7 C 38,6 km/h (5 Bft) 97 %
30.12.2017 17:40 10,4 C 10,3 C 10,4 C 91 % 1005,4 hPa 0,0 l/m 16,3 km/h (3 Bft) W-SW 241 0 min 0,000 mm 0 W/m 9,0 C 5,1 C 37,0 km/h (5 Bft) 97 %
30.12.2017 17:50 10,6 C 10,4 C 10,6 C 90 % 1005,5 hPa 0,0 l/m 18,2 km/h (3 Bft) W-SW 252 0 min 0,000 mm 0 W/m 9,0 C 4,7 C 38,6 km/h (5 Bft) 98 %
30.12.2017 18:00 10,7 C 10,6 C 10,7 C 91 % 1005,7 hPa 0,0 l/m 16,8 km/h (3 Bft) W 264 0 min 0,000 mm 0 W/m 9,3 C 5,3 C 40,2 km/h (6 Bft) 97 %
30.12.2017 18:10 10,7 C 10,7 C 10,7 C 90 % 1005,8 hPa 0,0 l/m 19,1 km/h (3 Bft) W-SW 258 0 min 0,025 mm 0 W/m 9,1 C 4,5 C 38,6 km/h (5 Bft) 97 %
30.12.2017 18:20 10,7 C 10,7 C 10,7 C 90 % 1005,8 hPa 0,0 l/m 19,5 km/h (3 Bft) W 260 0 min 0,000 mm 0 W/m 9,1 C 4,4 C 38,6 km/h (5 Bft) 98 %
30.12.2017 18:30 10,8 C 10,7 C 10,8 C 90 % 1005,8 hPa 0,0 l/m 18,9 km/h (3 Bft) W 262 0 min 0,000 mm 0 W/m 9,2 C 4,7 C 37,0 km/h (5 Bft) 97 %
30.12.2017 18:40 10,8 C 10,8 C 10,8 C 90 % 1006,1 hPa 0,0 l/m 17,3 km/h (3 Bft) W 276 0 min 0,000 mm 0 W/m 9,2 C 5,2 C 33,8 km/h (5 Bft) 98 %
30.12.2017 18:50 10,8 C 10,8 C 10,8 C 90 % 1006,3 hPa 0,0 l/m 19,5 km/h (3 Bft) W 259 0 min 0,000 mm 0 W/m 9,2 C 4,5 C 40,2 km/h (6 Bft) 97 %
30.12.2017 19:00 10,8 C 10,8 C 10,8 C 90 % 1006,5 hPa 0,0 l/m 16,2 km/h (3 Bft) W-SW 257 0 min 0,000 mm 0 W/m 9,2 C 5,6 C 32,2 km/h (5 Bft) 97 %
30.12.2017 19:10 10,9 C 10,8 C 10,9 C 90 % 1006,5 hPa 0,0 l/m 19,0 km/h (3 Bft) W-SW 252 0 min 0,025 mm 0 W/m 9,3 C 4,8 C 33,8 km/h (5 Bft) 98 %
30.12.2017 19:20 10,9 C 10,9 C 10,9 C 90 % 1006,6 hPa 0,0 l/m 12,9 km/h (3 Bft) W 267 0 min 0,001 mm 0 W/m 9,3 C 7,1 C 33,8 km/h (5 Bft) 98 %
30.12.2017 19:30 11,0 C 10,9 C 11,0 C 90 % 1006,8 hPa 0,0 l/m 16,8 km/h (3 Bft) W 262 0 min 0,000 mm 0 W/m 9,4 C 5,7 C 30,6 km/h (5 Bft) 96 %
30.12.2017 19:40 11,1 C 11,0 C 11,1 C 90 % 1006,6 hPa 0,0 l/m 8,1 km/h (2 Bft) W 264 0 min 0,000 mm 0 W/m 9,5 C 9,9 C 27,4 km/h (4 Bft) 97 %
30.12.2017 19:50 11,1 C 11,1 C 11,2 C 90 % 1006,7 hPa 0,1 l/m 12,5 km/h (3 Bft) SW 216 0 min 0,000 mm 0 W/m 9,5 C 7,5 C 29,0 km/h (5 Bft) 98 %
30.12.2017 20:00 11,0 C 11,0 C 11,1 C 90 % 1006,6 hPa 1,0 l/m 3,4 km/h (1 Bft) S-SW 196 0 min 0,000 mm 0 W/m 9,4 C 11,0 C 14,5 km/h (3 Bft) 97 %
30.12.2017 20:10 10,9 C 10,9 C 11,0 C 90 % 1006,6 hPa 0,4 l/m 9,4 km/h (2 Bft) W-SW 256 0 min 0,025 mm 0 W/m 9,3 C 8,9 C 35,4 km/h (5 Bft) 98 %
30.12.2017 20:20 10,8 C 10,8 C 10,9 C 90 % 1006,9 hPa 0,6 l/m 4,8 km/h (1 Bft) W 273 0 min 0,000 mm 0 W/m 9,2 C 10,8 C 19,3 km/h (3 Bft) 97 %
30.12.2017 20:30 10,8 C 10,8 C 10,8 C 90 % 1006,9 hPa 1,6 l/m 3,9 km/h (1 Bft) W-SW 252 0 min 0,000 mm 0 W/m 9,2 C 10,8 C 14,5 km/h (3 Bft) 97 %
30.12.2017 20:40 10,8 C 10,8 C 10,8 C 90 % 1006,6 hPa 1,0 l/m 0,5 km/h (0 Bft) W 263 0 min 0,000 mm 0 W/m 9,2 C 10,8 C 11,3 km/h (2 Bft) 98 %
30.12.2017 20:50 10,7 C 10,7 C 10,8 C 90 % 1006,6 hPa 0,4 l/m 4,8 km/h (1 Bft) W-SW 253 0 min 0,000 mm 0 W/m 9,1 C 10,7 C 16,1 km/h (3 Bft) 97 %
30.12.2017 21:00 10,7 C 10,7 C 10,7 C 90 % 1006,5 hPa 0,2 l/m 8,0 km/h (2 Bft) W-SW 239 0 min 0,000 mm 0 W/m 9,1 C 9,6 C 20,9 km/h (4 Bft) 98 %
30.12.2017 21:10 10,8 C 10,7 C 10,8 C 90 % 1006,7 hPa 0,2 l/m 16,1 km/h (3 Bft) W-SW 247 0 min 0,000 mm 0 W/m 9,2 C 5,7 C 29,0 km/h (5 Bft) 100 %
30.12.2017 21:20 10,9 C 10,8 C 10,9 C 90 % 1006,8 hPa 1,2 l/m 12,9 km/h (3 Bft) W-SW 247 0 min 0,000 mm 0 W/m 9,3 C 7,1 C 25,7 km/h (4 Bft) 100 %
30.12.2017 21:30 11,1 C 10,9 C 11,1 C 90 % 1006,5 hPa 0,6 l/m 14,5 km/h (3 Bft) W-SW 247 0 min 0,000 mm 0 W/m 9,5 C 6,7 C 29,0 km/h (5 Bft) 100 %
30.12.2017 21:40 11,1 C 11,1 C 11,1 C 90 % 1006,5 hPa 0,2 l/m 11,3 km/h (2 Bft) W 270 0 min 0,000 mm 0 W/m 9,5 C 8,1 C 27,4 km/h (4 Bft) 100 %
30.12.2017 21:50 11,1 C 11,1 C 11,1 C 90 % 1006,8 hPa 1,0 l/m 11,3 km/h (2 Bft) W 270 0 min 0,000 mm 0 W/m 9,5 C 8,1 C 33,8 km/h (5 Bft) 100 %
30.12.2017 22:00 11,2 C 11,1 C 11,2 C 90 % 1006,8 hPa 1,4 l/m 9,7 km/h (2 Bft) W 270 0 min 0,025 mm 0 W/m 9,6 C 9,1 C 32,2 km/h (5 Bft) 100 %
30.12.2017 22:10 11,1 C 11,1 C 11,2 C 90 % 1006,7 hPa 0,8 l/m 8,0 km/h (2 Bft) W 270 0 min 0,000 mm 0 W/m 9,5 C 10,0 C 19,3 km/h (3 Bft) 100 %
30.12.2017 22:20 11,2 C 11,1 C 11,2 C 90 % 1006,7 hPa 0,6 l/m 12,9 km/h (3 Bft) W 270 0 min 0,000 mm 0 W/m 9,6 C 7,5 C 27,4 km/h (4 Bft) 100 %
30.12.2017 22:30 11,1 C 11,1 C 11,2 C 90 % 1006,8 hPa 0,2 l/m 11,3 km/h (2 Bft) W 270 0 min 0,000 mm 0 W/m 9,5 C 8,1 C 32,2 km/h (5 Bft) 100 %
30.12.2017 22:40 11,2 C 11,1 C 11,2 C 90 % 1006,8 hPa 0,4 l/m 14,5 km/h (3 Bft) W-SW 247 0 min 0,000 mm 0 W/m 9,6 C 6,8 C 32,2 km/h (5 Bft) 100 %
30.12.2017 22:50 11,2 C 11,2 C 11,2 C 90 % 1006,8 hPa 0,0 l/m 14,5 km/h (3 Bft) SW 225 0 min 0,000 mm 0 W/m 9,6 C 6,8 C 35,4 km/h (5 Bft) 100 %
30.12.2017 23:00 11,2 C 11,2 C 11,3 C 90 % 1007,1 hPa 0,2 l/m 19,3 km/h (3 Bft) W-SW 247 0 min 0,025 mm 0 W/m 9,6 C 5,1 C 48,3 km/h (6 Bft) 100 %
30.12.2017 23:10 11,3 C 11,2 C 11,3 C 90 % 1007,2 hPa 0,2 l/m 20,9 km/h (4 Bft) W-SW 247 0 min 0,000 mm 0 W/m 9,7 C 4,7 C 37,0 km/h (5 Bft) 100 %
30.12.2017 23:20 11,3 C 11,3 C 11,3 C 90 % 1007,4 hPa 0,2 l/m 17,7 km/h (3 Bft) W-SW 247 0 min 0,000 mm 0 W/m 9,7 C 5,7 C 41,8 km/h (6 Bft) 100 %
30.12.2017 23:30 11,3 C 11,3 C 11,3 C 90 % 1007,4 hPa 0,2 l/m 22,5 km/h (4 Bft) W 270 0 min 0,000 mm 0 W/m 9,7 C 4,2 C 43,5 km/h (6 Bft) 100 %
30.12.2017 23:40 11,3 C 11,3 C 11,3 C 90 % 1007,9 hPa 0,4 l/m 16,1 km/h (3 Bft) W-SW 247 0 min 0,000 mm 0 W/m 9,7 C 6,3 C 33,8 km/h (5 Bft) 100 %
30.12.2017 23:50 11,1 C 11,1 C 11,3 C 90 % 1008,2 hPa 2,0 l/m 12,9 km/h (3 Bft) NW 315 0 min 0,000 mm 0 W/m 9,5 C 7,4 C 27,4 km/h (4 Bft) 100 %
_ Min-Zeit 00:00 00:00 00:00 16:10 11:30 - 20:40 - - - - - 00:00 11:10 07:20 12:20
Minimum _ 1,4 C 1,2 C 1,4 C 90 % 1002,7 hPa - 0,5 km/h (0 Bft) - - - - - 0,1 C -3,7 C 8,0 km/h (2 Bft) 88 %
_ Max-Zeit 23:00 23:20 23:00 17:30 02:30 23:50 23:30 - - 00:00 11:00 11:30 23:10 20:00 23:00 21:10
Maximum _ 11,3 C 11,3 C 11,3 C 94 % 1008,6 hPa 2,0 l/m 22,5 km/h
W (4 Bft)
- - 0 min 0,025 mm 91 W/m 9,7 C 11,0 C 48,3 km/h
W-SW (6 Bft)
100 %
Durchschnitt _ 5,7 C 5,6 C 5,7 C 91 % 1005,9 hPa #18,6 l/m 10,4 km/h (2 Bft) W-SW - #0 min. #0,304 mm 44 W/m 4,3 C 2,9 C 24,1 km/h (4 Bft) 98 %
PRIVATE WETTERSTATION BILLIGHEIM-ALLFELD - www.neckar-odenwald-wetter.de - Holger Sonntag